period_start,C,m1,H,J0,J1,J2,J3,J4,J5,JA,JB,JC,JD,JJ,JK,JN,#
2015-03-02 00:03:20,0.26,6.74,0.00,20.78,26.05,29.06,4.93,28.78,1022.97,2033.00,1578.44,1946.08,2097.75,350.57,353.02,34.65,0000 0000 0000 0000 000000
2015-03-02 00:08:22,0.25,6.75,0.00,20.68,26.06,29.05,4.82,28.52,1022.96,2032.99,1577.29,1945.11,2096.69,349.59,352.13,34.68,0000 0000 0000 0000 000000
2015-03-02 00:13:23,0.24,6.76,0.00,20.76,26.07,29.09,4.90,28.63,1022.98,2032.99,1576.19,1944.16,2095.66,349.80,352.34,34.71,0000 0000 0000 0000 000000
2015-03-02 00:18:25,0.25,6.77,0.00,20.72,26.08,28.97,4.91,28.64,1023.03,2032.98,1575.13,1943.22,2094.60,349.92,352.74,34.74,0000 0000 0000 0000 000000
2015-03-02 00:23:26,0.26,6.77,0.00,20.79,26.10,29.04,4.96,28.60,1023.00,2032.98,1573.94,1942.23,2093.59,350.51,352.99,34.77,0000 0000 0000 0000 000000
2015-03-02 00:28:27,0.28,6.78,0.00,20.87,26.11,29.08,4.84,28.48,1022.99,2032.97,1572.69,1941.33,2092.59,349.24,351.68,34.80,0000 0000 0000 0000 000000
2015-03-02 00:33:29,0.24,6.79,0.00,20.80,26.12,29.02,4.88,28.69,1022.98,2032.93,1571.57,1940.35,2091.54,350.28,353.05,34.83,0000 0000 0000 0000 000000
2015-03-02 00:38:31,0.21,6.79,0.00,20.81,26.13,29.06,4.95,28.65,1023.02,2032.66,1570.41,1939.36,2090.48,350.10,352.51,34.86,0000 0000 0000 0000 000000
2015-03-02 00:43:32,0.13,6.80,0.00,20.87,26.15,29.10,4.83,28.72,1023.13,2032.19,1569.25,1938.35,2089.38,350.32,352.74,34.89,0000 0000 0000 0000 000000
2015-03-02 00:48:33,0.23,6.80,0.00,20.89,26.17,29.15,4.84,28.60,1023.09,2032.13,1568.22,1937.55,2088.47,349.29,351.53,34.92,0000 0000 0000 0000 000000
2015-03-02 00:53:35,0.23,6.81,0.00,20.88,26.18,29.07,4.85,28.62,1022.99,2032.08,1567.06,1936.58,2087.46,349.64,352.14,34.95,0000 0000 0000 0000 000000
2015-03-02 00:58:36,0.24,5.68,0.00,20.94,26.20,29.13,4.39,25.42,1022.99,2032.71,1884.46,2169.33,2342.64,311.71,313.64,0.00,0000 0000 0000 0000 000002
2015-03-02 01:03:37,0.29,0.00,0.00,20.96,26.22,29.24,4.86,27.35,1022.99,2036.54,3470.62,3330.92,3618.83,350.40,352.52,0.01,0000 0000 0000 0000 000000
2015-03-02 01:08:38,0.28,0.00,0.00,21.04,26.23,29.23,4.94,27.09,1022.98,2036.18,3466.06,3327.81,3615.15,350.17,352.18,0.04,0000 0000 0000 0000 000000
2015-03-02 01:13:40,0.28,0.01,0.00,21.04,26.25,29.20,4.79,27.11,1023.03,2036.06,3462.64,3325.61,3612.38,350.09,352.37,0.07,0000 0000 0000 0000 000000
2015-03-02 01:18:41,0.28,0.01,0.00,21.03,26.27,29.26,4.92,27.18,1023.18,2036.06,3459.32,3323.36,3609.76,349.98,352.31,0.10,0000 0000 0000 0000 000000
2015-03-02 01:23:42,0.26,0.02,0.00,21.05,26.29,29.33,4.84,27.07,1023.33,2036.03,3456.07,3321.10,3607.12,349.80,352.02,0.13,0000 0000 0000 0000 000000
2015-03-02 01:28:44,0.25,0.03,0.00,21.14,26.31,29.30,4.79,27.06,1023.44,2036.01,3452.87,3318.81,3604.44,349.59,352.01,0.16,0000 0000 0000 0000 000000
2015-03-02 01:33:45,0.24,0.04,0.00,21.13,26.32,29.34,4.95,27.13,1023.45,2036.01,3449.64,3316.52,3601.88,349.74,352.09,0.18,0000 0000 0000 0000 000000
2015-03-02 01:38:46,0.20,0.04,0.00,21.14,26.35,29.32,4.87,27.18,1023.45,2036.00,3446.49,3314.55,3599.47,350.26,352.35,0.21,0000 0000 0000 0000 000000
2015-03-02 01:43:47,0.17,0.05,0.00,21.17,26.36,29.37,4.97,27.24,1023.45,2036.00,3443.55,3313.44,3597.84,350.24,352.35,0.24,0000 0000 0000 0000 000000
2015-03-02 01:48:49,0.25,0.05,0.00,21.19,26.39,29.36,4.94,27.15,1023.45,2036.00,3440.42,3311.29,3595.35,350.19,352.44,0.27,0000 0000 0000 0000 000000
2015-03-02 01:53:50,0.24,0.06,0.00,21.28,26.41,29.40,4.87,27.19,1023.45,2035.99,3437.26,3309.01,3592.76,350.19,352.27,0.30,0000 0000 0000 0000 000000
2015-03-02 01:58:51,0.23,0.07,0.00,21.26,26.42,29.42,4.80,27.01,1023.45,2035.97,3434.11,3306.71,3590.25,350.13,352.03,0.33,0000 0000 0000 0000 000000
2015-03-02 02:03:53,0.23,0.07,0.00,21.23,26.45,29.39,4.88,27.07,1023.45,2035.92,3430.94,3304.38,3587.65,350.14,352.10,0.36,0000 0000 0000 0000 000000
2015-03-02 02:08:54,0.19,0.08,0.00,21.31,26.47,29.43,4.87,26.95,1023.45,2035.79,3427.82,3302.19,3585.20,350.27,352.26,0.39,0000 0000 0000 0000 000000
2015-03-02 02:13:55,0.16,0.09,0.00,21.32,26.49,29.44,4.94,27.17,1023.45,2035.28,3424.61,3299.85,3582.74,350.12,352.03,0.42,0000 0000 0000 0000 000000
2015-03-02 02:18:57,0.22,0.09,0.00,21.31,26.51,29.43,4.85,26.95,1023.45,2035.03,3421.29,3297.47,3580.19,349.82,351.90,0.45,0000 0000 0000 0000 000000
2015-03-02 02:23:58,0.24,0.10,0.00,21.37,26.54,29.43,4.89,27.01,1023.45,2035.02,3418.13,3295.19,3577.64,350.07,352.05,0.48,0000 0000 0000 0000 000000
2015-03-02 02:28:59,0.23,0.11,0.00,21.38,26.56,29.50,4.86,26.90,1023.45,2035.00,3415.00,3292.90,3575.24,349.95,352.08,0.51,0000 0000 0000 0000 000000
2015-03-02 02:34:00,0.24,0.11,0.00,21.36,26.57,29.53,4.84,26.95,1023.45,2035.00,3411.77,3290.58,3572.64,349.66,351.45,0.54,0000 0000 0000 0000 000000
2015-03-02 02:39:02,0.25,0.12,0.00,21.44,26.60,29.53,4.88,26.98,1023.45,2035.00,3408.45,3288.20,3570.01,349.84,351.85,0.57,0000 0000 0000 0000 000000
2015-03-02 02:44:03,0.24,0.13,0.00,21.41,26.62,29.47,4.89,27.02,1023.42,2034.96,3405.12,3285.78,3567.40,350.45,352.38,0.59,0000 0000 0000 0000 000000
2015-03-02 02:49:04,0.25,0.14,0.00,21.41,26.65,29.46,4.82,26.88,1023.44,2034.94,3401.93,3283.40,3564.76,350.04,351.79,0.62,0000 0000 0000 0000 000000
2015-03-02 02:54:05,0.22,0.14,0.00,21.51,26.67,29.58,4.80,26.98,1023.45,2034.76,3398.66,3281.01,3562.08,349.64,351.86,0.65,0000 0000 0000 0000 000000
2015-03-02 02:59:06,0.18,0.15,0.00,21.58,26.70,29.59,4.81,26.93,1023.45,2034.41,3395.46,3278.70,3559.53,350.07,351.78,0.68,0000 0000 0000 0000 000000
2015-03-02 03:04:08,0.21,0.16,0.00,21.60,26.72,29.59,4.89,26.86,1023.45,2034.26,3392.27,3276.38,3557.00,349.80,351.38,0.71,0000 0000 0000 0000 000000
2015-03-02 03:09:09,0.23,0.16,0.00,21.58,26.75,29.61,4.79,26.88,1023.45,2034.05,3389.14,3274.00,3554.40,350.02,351.83,0.74,0000 0000 0000 0000 000000
2015-03-02 03:14:10,0.26,0.17,0.00,21.63,26.78,29.73,4.83,27.18,1023.45,2034.01,3385.79,3271.56,3551.72,349.55,351.24,0.77,0000 0000 0000 0000 000000
2015-03-02 03:19:12,0.26,0.18,0.00,21.62,26.81,29.71,4.88,27.06,1023.45,2034.00,3382.27,3269.09,3548.89,350.45,352.23,0.80,0000 0000 0000 0000 000000
2015-03-02 03:24:13,0.27,0.19,0.00,21.81,26.83,29.92,4.88,27.02,1023.46,2034.00,3378.80,3266.50,3546.07,349.87,351.28,0.83,0000 0000 0000 0000 000000
2015-03-02 03:29:14,0.25,0.19,0.00,21.90,26.86,29.98,4.87,27.07,1023.46,2033.99,3375.48,3264.12,3543.40,349.58,350.99,0.86,0000 0000 0000 0000 000000
2015-03-02 03:34:15,0.25,0.20,0.00,21.76,26.89,29.93,4.88,27.06,1023.46,2033.97,3372.09,3261.81,3540.68,350.37,351.95,0.89,0000 0000 0000 0000 000000
2015-03-02 03:39:17,0.23,0.21,0.00,21.71,26.91,29.96,4.87,27.08,1023.48,2033.86,3368.79,3259.41,3538.03,349.81,351.37,0.92,0000 0000 0000 0000 000000
2015-03-02 03:44:18,0.17,0.21,0.00,21.76,26.94,29.92,4.88,27.02,1023.47,2033.30,3365.33,3256.85,3535.31,349.74,351.27,0.95,0000 0000 0000 0000 000000
2015-03-02 03:49:19,0.22,0.22,0.00,21.79,26.97,29.80,4.85,26.86,1023.46,2033.05,3362.10,3254.49,3532.69,349.66,351.09,0.98,0000 0000 0000 0000 000000
2015-03-02 03:54:21,0.26,0.23,0.00,21.78,27.00,29.77,4.86,26.97,1023.46,2033.02,3358.82,3252.12,3530.15,350.18,351.91,1.00,0000 0000 0000 0000 000000
2015-03-02 03:59:22,0.24,0.23,0.00,21.77,27.02,29.76,4.89,26.95,1023.46,2033.01,3355.66,3249.80,3527.57,349.67,351.07,1.03,0000 0000 0000 0000 000000
2015-03-02 04:04:23,0.25,0.24,0.00,21.81,27.05,29.76,4.86,26.87,1023.47,2033.00,3352.42,3247.42,3524.92,350.03,351.42,1.06,0000 0000 0000 0000 000000
2015-03-02 04:09:25,0.25,0.25,0.00,21.85,27.07,29.75,4.78,26.68,1023.47,2033.00,3349.26,3245.15,3522.42,349.59,350.96,1.09,0000 0000 0000 0000 000000
2015-03-02 04:14:26,0.23,0.26,0.00,21.84,27.10,29.82,4.85,26.82,1023.48,2032.98,3346.08,3242.85,3519.97,350.26,351.70,1.12,0000 0000 0000 0000 000000
2015-03-02 04:19:27,0.24,0.26,0.00,21.79,27.12,29.71,4.74,26.85,1023.48,2032.96,3342.86,3240.52,3517.56,349.52,350.94,1.15,0000 0000 0000 0000 000000
2015-03-02 04:24:28,0.22,0.27,0.00,21.83,27.15,29.55,4.81,26.88,1023.48,2032.79,3339.64,3238.15,3514.97,349.46,351.02,1.18,0000 0000 0000 0000 000000
2015-03-02 04:29:29,0.17,0.28,0.00,21.95,27.17,29.62,4.90,27.07,1023.46,2032.34,3336.52,3235.76,3512.38,350.00,351.19,1.21,0000 0000 0000 0000 000000
2015-03-02 04:34:30,0.23,0.28,0.00,22.00,27.20,29.60,4.85,26.96,1023.45,2032.10,3333.34,3233.43,3509.84,349.75,350.97,1.24,0000 0000 0000 0000 000000
2015-03-02 04:39:32,0.26,0.29,0.00,22.03,27.22,29.68,4.89,27.03,1023.46,2032.03,3330.10,3231.03,3507.15,349.86,350.97,1.27,0000 0000 0000 0000 000000
2015-03-02 04:44:33,0.23,0.30,0.00,22.06,27.25,29.67,4.83,26.97,1023.45,2032.00,3326.92,3228.58,3504.56,350.09,351.18,1.30,0000 0000 0000 0000 000000
2015-03-02 04:49:34,0.26,0.30,0.00,22.09,27.28,29.73,4.91,27.06,1023.45,2032.00,3323.83,3226.27,3502.00,349.88,351.02,1.33,0000 0000 0000 0000 000000
2015-03-02 04:54:35,0.24,0.31,0.00,22.19,27.31,29.82,4.92,27.08,1023.45,2031.99,3320.70,3224.00,3499.54,349.86,350.61,1.36,0000 0000 0000 0000 000000
2015-03-02 04:59:37,0.25,0.32,0.00,22.41,27.34,30.05,4.89,27.05,1023.46,2031.98,3317.49,3221.57,3496.96,349.98,350.36,1.39,0000 0000 0000 0000 000000
2015-03-02 05:04:38,0.24,0.33,0.00,22.97,27.37,30.43,4.77,26.74,1023.47,2031.92,3314.30,3219.23,3494.36,349.30,349.44,1.41,0000 0000 0000 0000 000000
2015-03-02 05:09:40,0.22,0.33,0.00,22.98,27.40,30.59,4.84,26.96,1023.47,2031.75,3311.20,3216.98,3491.84,350.10,349.95,1.44,0000 0000 0000 0000 000000
2015-03-02 05:14:41,0.18,0.34,0.00,23.02,27.41,30.61,4.80,26.83,1023.46,2031.47,3308.20,3214.74,3489.40,349.98,349.99,1.47,0000 0000 0000 0000 000000
2015-03-02 05:19:42,0.21,0.34,0.00,22.62,27.43,30.53,4.83,27.03,1023.46,2031.37,3305.29,3212.59,3487.01,349.78,350.25,1.50,0000 0000 0000 0000 000000
2015-03-02 05:24:43,0.20,0.35,0.00,22.35,27.45,30.50,4.97,27.12,1023.46,2031.08,3302.21,3210.40,3484.52,350.70,351.58,1.53,0000 0000 0000 0000 000000
2015-03-02 05:29:45,0.25,0.36,0.00,22.29,27.47,30.43,4.85,27.02,1023.48,2031.03,3299.13,3208.19,3482.07,349.93,350.59,1.56,0000 0000 0000 0000 000000
2015-03-02 05:34:46,0.24,0.36,0.00,22.25,27.47,30.27,4.84,27.14,1023.50,2031.00,3296.10,3205.92,3479.75,350.32,351.04,1.59,0000 0000 0000 0000 000000
2015-03-02 05:39:47,0.26,0.37,0.00,22.22,27.49,30.24,4.81,27.08,1023.51,2030.99,3292.85,3203.55,3477.13,349.98,351.03,1.62,0000 0000 0000 0000 000000
2015-03-02 05:44:49,0.23,0.38,0.00,22.37,27.50,30.36,4.87,27.02,1023.48,2030.99,3289.75,3201.29,3474.68,349.83,350.49,1.65,0000 0000 0000 0000 000000
2015-03-02 05:49:50,0.25,0.39,0.00,22.96,27.52,30.55,4.88,26.87,1023.47,2030.98,3286.76,3199.12,3472.23,350.26,350.29,1.68,0000 0000 0000 0000 000000
2015-03-02 05:54:51,0.23,0.39,0.00,23.06,27.52,30.63,4.80,26.78,1023.49,2030.95,3283.72,3196.97,3469.75,350.05,349.86,1.71,0000 0000 0000 0000 000000
2015-03-02 05:59:53,0.23,0.40,0.00,23.13,27.54,30.64,4.82,26.76,1023.51,2030.97,3280.78,3194.91,3467.52,350.30,350.27,1.74,0000 0000 0000 0000 000000
2015-03-02 06:04:54,0.23,0.41,0.00,22.93,27.55,30.64,4.88,26.88,1023.67,2030.97,3277.88,3192.81,3465.24,350.38,350.35,1.77,0000 0000 0000 0000 000000
2015-03-02 06:09:56,0.23,0.41,0.00,22.72,27.56,30.64,4.86,26.92,1023.58,2030.94,3274.99,3190.66,3462.83,349.78,350.11,1.80,0000 0000 0000 0000 000000
2015-03-02 06:14:57,0.22,0.42,0.00,23.12,27.57,30.67,4.79,26.91,1023.50,2030.86,3272.07,3188.51,3460.48,350.24,349.90,1.82,0000 0000 0000 0000 000000
2015-03-02 06:19:58,0.19,0.43,0.00,23.27,27.58,30.68,4.85,26.98,1023.54,2030.54,3269.06,3186.31,3458.15,349.91,349.65,1.85,0000 0000 0000 0000 000000
2015-03-02 06:25:00,0.21,0.43,0.00,23.28,27.60,30.69,4.86,26.81,1023.52,2030.46,3266.14,3184.26,3455.91,350.58,350.10,1.88,0000 0000 0000 0000 000000
2015-03-02 06:30:01,0.20,0.44,0.00,23.24,27.60,30.67,4.79,26.88,1023.62,2030.42,3263.32,3182.16,3453.72,350.23,350.19,1.91,0000 0000 0000 0000 000000
2015-03-02 06:35:03,0.23,0.45,0.00,23.16,27.60,30.67,4.76,26.92,1023.66,2030.49,3260.61,3180.12,3451.47,349.26,349.17,1.94,0000 0000 0000 0000 000000
2015-03-02 06:40:04,0.19,0.45,0.00,23.40,27.62,30.68,4.78,26.97,1023.58,2030.13,3257.65,3177.95,3449.09,349.88,349.56,1.97,0000 0000 0000 0000 000000
2015-03-02 06:45:06,0.23,0.46,0.00,23.41,27.62,30.67,4.82,26.74,1023.61,2030.06,3254.82,3175.82,3446.73,349.76,349.73,2.00,0000 0000 0000 0000 000000
2015-03-02 06:50:06,0.22,0.46,0.00,23.40,27.63,30.64,4.79,26.91,1023.86,2030.03,3251.99,3173.78,3444.42,349.52,348.91,2.03,0000 0000 0000 0000 000000
2015-03-02 06:55:08,0.23,0.47,0.00,23.42,27.65,30.65,4.86,26.78,1023.93,2030.02,3249.03,3171.64,3442.06,350.28,349.97,2.06,0000 0000 0000 0000 000000
2015-03-02 07:00:09,0.22,0.48,0.00,23.45,27.65,30.65,4.86,26.82,1023.94,2030.00,3246.15,3169.55,3439.85,350.40,350.10,2.09,0000 0000 0000 0000 000000
2015-03-02 07:05:10,0.23,0.49,0.00,23.46,27.66,30.68,4.80,26.87,1023.94,2030.00,3243.28,3167.48,3437.59,349.83,349.46,2.12,0000 0000 0000 0000 000000
2015-03-02 07:10:12,0.23,0.49,0.00,23.43,27.67,30.68,4.77,26.86,1023.98,2030.00,3240.44,3165.42,3435.42,349.93,349.68,2.15,0000 0000 0000 0000 000000
2015-03-02 07:15:13,0.23,0.50,0.00,23.42,27.67,30.68,4.82,26.98,1024.05,2030.00,3237.54,3163.39,3433.21,349.70,349.44,2.18,0000 0000 0000 0000 000000
2015-03-02 07:20:14,0.23,0.51,0.00,23.45,27.67,30.66,4.81,27.07,1024.18,2030.00,3234.66,3161.25,3430.93,350.10,349.88,2.21,0000 0000 0000 0000 000000
2015-03-02 07:25:15,0.23,0.51,0.00,23.44,27.67,30.68,4.86,27.02,1024.33,2030.00,3231.81,3159.16,3428.63,350.63,350.30,2.23,0000 0000 0000 0000 000000
2015-03-02 07:30:16,0.22,0.52,0.00,23.43,27.69,30.68,4.87,26.98,1024.36,2030.00,3229.03,3157.20,3426.42,350.73,350.37,2.26,0000 0000 0000 0000 000000
2015-03-02 07:35:18,0.23,0.53,0.00,23.42,27.70,30.65,4.78,26.89,1024.43,2029.99,3226.24,3155.11,3424.13,349.77,349.64,2.29,0000 0000 0000 0000 000000
2015-03-02 07:40:19,0.23,0.53,0.00,23.45,27.70,30.69,4.85,27.00,1024.42,2029.98,3223.41,3153.04,3421.75,349.74,349.52,2.32,0000 0000 0000 0000 000000
2015-03-02 07:45:20,0.21,0.54,0.00,23.42,27.70,30.71,4.84,27.01,1024.43,2029.99,3220.63,3151.05,3419.64,350.21,350.03,2.35,0000 0000 0000 0000 000000
2015-03-02 07:50:22,0.24,0.55,0.00,23.39,27.70,30.65,4.86,27.05,1024.43,2029.98,3217.77,3149.04,3417.40,349.70,349.68,2.38,0000 0000 0000 0000 000000
2015-03-02 07:55:23,0.22,0.55,0.00,23.42,27.70,30.60,4.84,27.01,1024.43,2029.98,3214.97,3146.97,3415.16,350.32,350.16,2.41,0000 0000 0000 0000 000000
2015-03-02 08:00:24,0.21,0.56,0.00,23.44,27.70,30.64,4.88,27.01,1024.43,2029.97,3212.33,3145.02,3412.99,350.05,349.75,2.44,0000 0000 0000 0000 000000
2015-03-02 08:05:26,0.23,0.57,0.00,23.45,27.71,30.63,4.82,26.84,1024.43,2029.96,3209.55,3142.96,3410.71,350.45,350.46,2.47,0000 0000 0000 0000 000000
2015-03-02 08:10:27,0.21,0.57,0.00,23.47,27.72,30.67,4.77,26.95,1024.43,2029.97,3206.85,3141.06,3408.58,349.63,349.50,2.50,0000 0000 0000 0000 000000
2015-03-02 08:15:28,0.22,0.58,0.00,23.46,27.72,30.70,4.91,26.96,1024.43,2029.94,3203.92,3139.04,3406.45,350.35,350.17,2.53,0000 0000 0000 0000 000000
2015-03-02 08:20:29,0.23,0.59,0.00,23.48,27.72,30.72,4.84,27.07,1024.43,2029.93,3201.07,3137.02,3404.30,350.13,349.93,2.56,0000 0000 0000 0000 000000
2015-03-02 08:25:31,0.22,0.59,0.00,23.47,27.72,30.74,4.89,27.14,1024.43,2029.93,3198.33,3135.02,3402.11,350.36,350.16,2.59,0000 0000 0000 0000 000000
2015-03-02 08:30:32,0.20,0.60,0.00,23.48,27.72,30.70,4.82,26.92,1024.41,2029.93,3195.68,3133.24,3399.99,349.94,349.58,2.62,0000 0000 0000 0000 000000
2015-03-02 08:35:33,0.22,0.61,0.00,23.45,27.72,30.72,4.78,26.98,1024.41,2029.94,3192.98,3131.30,3397.85,350.10,349.73,2.64,0000 0000 0000 0000 000000
2015-03-02 08:40:34,0.22,0.61,0.00,23.44,27.72,30.73,4.80,26.89,1024.43,2029.92,3190.23,3129.32,3395.70,350.01,349.94,2.67,0000 0000 0000 0000 000000
2015-03-02 08:45:36,0.21,0.62,0.00,23.43,27.72,30.70,4.85,26.89,1024.43,2029.93,3187.51,3127.42,3393.60,350.00,350.02,2.70,0000 0000 0000 0000 000000
2015-03-02 08:50:37,0.22,0.62,0.00,23.45,27.72,30.73,4.78,26.79,1024.43,2029.93,3184.83,3125.44,3391.56,349.58,349.53,2.73,0000 0000 0000 0000 000000
2015-03-02 08:55:38,0.21,0.63,0.00,23.44,27.72,30.75,4.86,26.77,1024.44,2029.90,3182.04,3123.49,3389.56,350.51,350.51,2.76,0000 0000 0000 0000 000000
2015-03-02 09:00:39,0.21,0.64,0.00,23.43,27.72,30.73,4.88,26.75,1024.45,2029.84,3179.35,3121.54,3387.46,350.14,349.87,2.79,0000 0000 0000 0000 000000
2015-03-02 09:05:40,0.23,0.64,0.00,23.39,27.72,30.71,4.85,26.77,1024.46,2029.82,3176.81,3119.60,3385.26,350.07,349.97,2.82,0000 0000 0000 0000 000000
2015-03-02 09:10:41,0.16,0.65,0.00,23.41,27.72,30.67,4.81,26.81,1024.51,2029.51,3174.14,3117.61,3383.01,349.72,349.61,2.85,0000 0000 0000 0000 000000
2015-03-02 09:15:43,0.20,0.65,0.00,23.46,27.72,30.70,4.81,26.90,1024.60,2029.31,3171.25,3115.62,3381.00,350.34,350.22,2.88,0000 0000 0000 0000 000000
2015-03-02 09:20:44,0.21,0.66,0.00,23.44,27.72,30.74,4.77,26.98,1024.66,2029.34,3168.54,3113.69,3378.95,349.51,349.35,2.91,0000 0000 0000 0000 000000
2015-03-02 09:25:45,0.28,0.67,0.00,23.44,27.72,30.71,4.79,26.94,1024.56,2029.57,3165.89,3111.83,3376.92,349.88,350.00,2.94,0000 0000 0000 0000 000000
2015-03-02 09:30:47,0.20,0.68,0.00,23.39,27.72,30.75,4.82,26.86,1024.59,2029.53,3163.16,3109.87,3374.86,349.89,349.79,2.97,0000 0000 0000 0000 000000
2015-03-02 09:35:48,0.18,0.68,0.00,23.30,27.72,30.75,4.82,26.88,1024.66,2029.41,3160.43,3107.92,3372.70,349.85,349.94,3.00,0000 0000 0000 0000 000000
2015-03-02 09:40:49,0.19,0.69,0.00,23.32,27.72,30.76,4.79,27.10,1024.60,2029.23,3157.72,3105.94,3370.44,349.57,349.61,3.03,0000 0000 0000 0000 000000
2015-03-02 09:45:50,0.21,0.69,0.00,23.45,27.73,30.76,4.84,26.95,1024.83,2029.15,3155.22,3104.03,3368.32,350.44,350.43,3.05,0000 0000 0000 0000 000000
2015-03-02 09:50:52,0.20,0.70,0.00,23.46,27.74,30.79,4.86,26.77,1024.91,2029.05,3152.65,3102.10,3366.20,350.66,350.54,3.08,0000 0000 0000 0000 000000
2015-03-02 09:55:53,0.21,0.71,0.00,23.45,27.74,30.75,4.79,26.88,1024.91,2029.08,3150.17,3100.31,3364.22,349.49,349.48,3.11,0000 0000 0000 0000 000000
2015-03-02 10:00:54,0.21,0.71,0.00,23.41,27.75,30.78,4.83,26.88,1024.85,2029.04,3147.51,3098.39,3362.11,350.23,350.26,3.14,0000 0000 0000 0000 000000
2015-03-02 10:05:55,0.21,0.72,0.00,23.39,27.75,30.78,4.79,26.98,1024.89,2029.04,3144.89,3096.53,3360.13,349.71,349.67,3.17,0000 0000 0000 0000 000000
2015-03-02 10:10:57,0.22,0.72,0.00,23.32,27.75,30.77,4.81,27.00,1024.91,2029.05,3142.37,3094.70,3358.06,349.55,349.47,3.20,0000 0000 0000 0000 000000
2015-03-02 10:15:58,0.22,0.73,0.00,23.26,27.75,30.76,4.85,26.94,1024.92,2029.04,3139.69,3092.77,3355.98,349.46,349.69,3.23,0000 0000 0000 0000 000000
2015-03-02 10:20:59,0.21,0.74,0.00,23.19,27.75,30.79,4.90,26.88,1024.92,2029.02,3137.06,3090.89,3354.03,350.50,350.76,3.26,0000 0000 0000 0000 000000
2015-03-02 10:26:00,0.21,0.74,0.00,23.40,27.75,30.79,4.87,26.87,1024.92,2029.02,3134.47,3088.95,3351.95,350.04,350.06,3.29,0000 0000 0000 0000 000000
2015-03-02 10:31:01,0.21,0.75,0.00,23.41,27.75,30.81,4.77,26.90,1024.92,2029.02,3131.92,3087.10,3349.96,349.79,349.88,3.32,0000 0000 0000 0000 000000
2015-03-02 10:36:03,0.21,0.76,0.00,23.41,27.75,30.83,4.83,26.88,1024.92,2029.02,3129.42,3085.28,3347.91,349.82,349.86,3.35,0000 0000 0000 0000 000000
2015-03-02 10:41:04,0.24,0.76,0.00,23.44,27.75,30.82,4.76,27.01,1024.92,2029.02,3126.76,3083.32,3345.78,349.12,349.12,3.38,0000 0000 0000 0000 000000
2015-03-02 10:46:05,0.19,0.77,0.00,23.41,27.75,30.81,4.84,26.79,1024.92,2029.02,3124.26,3081.56,3343.86,350.06,350.12,3.41,0000 0000 0000 0000 000000
2015-03-02 10:51:06,0.22,0.78,0.00,23.35,27.75,30.79,4.79,26.77,1024.92,2029.04,3121.86,3079.72,3341.83,349.51,349.37,3.44,0000 0000 0000 0000 000000
2015-03-02 10:56:07,0.22,0.78,0.00,22.99,27.75,30.84,4.77,27.01,1024.92,2029.01,3119.17,3077.77,3339.70,350.34,350.83,3.46,0000 0000 0000 0000 000000
2015-03-02 11:01:09,0.21,0.79,0.00,22.62,27.75,30.78,4.82,27.19,1024.92,2029.01,3116.48,3075.89,3337.72,349.78,350.72,3.49,0000 0000 0000 0000 000000
2015-03-02 11:06:10,0.22,0.80,0.00,22.42,27.75,30.59,4.89,27.08,1024.92,2029.00,3113.83,3074.03,3335.66,350.27,351.41,3.52,0000 0000 0000 0000 000000
2015-03-02 11:11:11,0.22,0.80,0.00,22.32,27.75,30.36,4.82,27.13,1024.92,2029.00,3111.18,3072.12,3333.58,349.51,350.88,3.55,0000 0000 0000 0000 000000
2015-03-02 11:16:12,0.22,0.81,0.00,22.26,27.75,30.06,4.88,27.12,1024.91,2029.00,3108.47,3070.26,3331.49,349.99,351.41,3.58,0000 0000 0000 0000 000000
2015-03-02 11:21:14,0.21,0.82,0.00,22.22,27.75,29.85,4.80,27.17,1024.90,2029.00,3105.79,3068.39,3329.37,349.73,351.18,3.61,0000 0000 0000 0000 000000
2015-03-02 11:26:15,0.22,0.82,0.00,22.58,27.75,30.04,4.87,26.97,1024.92,2029.00,3103.22,3066.49,3327.40,350.31,351.63,3.64,0000 0000 0000 0000 000000
2015-03-02 11:31:16,0.22,0.83,0.00,23.06,27.75,30.65,4.86,27.13,1024.92,2029.00,3100.61,3064.62,3325.45,349.90,350.42,3.67,0000 0000 0000 0000 000000
2015-03-02 11:36:18,0.21,0.83,0.00,23.09,27.74,30.73,4.76,26.97,1024.92,2029.00,3098.19,3062.84,3323.58,349.34,349.90,3.70,0000 0000 0000 0000 000000
2015-03-02 11:41:19,0.21,0.84,0.00,23.15,27.73,30.67,4.82,27.07,1024.92,2029.00,3095.61,3061.08,3321.67,350.32,350.57,3.73,0000 0000 0000 0000 000000
2015-03-02 11:46:20,0.19,0.85,0.00,23.13,27.72,30.75,4.82,26.78,1024.92,2029.01,3093.18,3059.35,3319.79,350.04,350.42,3.76,0000 0000 0000 0000 000000
2015-03-02 11:51:22,0.22,0.85,0.00,22.72,27.72,30.67,4.86,27.08,1024.92,2029.02,3090.67,3057.57,3317.79,350.04,351.00,3.79,0000 0000 0000 0000 000000
2015-03-02 11:56:23,0.22,0.86,0.00,22.41,27.70,30.51,4.87,27.01,1024.92,2029.01,3088.06,3055.71,3315.80,350.01,351.23,3.82,0000 0000 0000 0000 000000
2015-03-02 12:01:25,0.21,0.87,0.00,22.29,27.70,30.30,4.86,27.06,1024.92,2029.03,3085.47,3053.86,3313.78,349.52,350.98,3.85,0000 0000 0000 0000 000000
2015-03-02 12:06:26,0.21,0.87,0.00,22.20,27.68,30.09,4.95,27.15,1024.92,2029.08,3083.00,3052.08,3311.86,350.31,351.59,3.88,0000 0000 0000 0000 000000
2015-03-02 12:11:28,0.23,0.88,0.00,22.17,27.67,29.88,4.82,27.19,1024.92,2029.05,3080.34,3050.11,3309.71,349.46,351.19,3.90,0000 0000 0000 0000 000000
2015-03-02 12:16:29,0.21,0.89,0.00,22.18,27.67,29.76,4.92,27.18,1024.91,2029.04,3077.76,3048.25,3307.68,349.72,351.18,3.93,0000 0000 0000 0000 000000
2015-03-02 12:21:30,0.22,0.89,0.00,22.79,27.67,30.24,4.82,27.14,1024.92,2029.06,3075.20,3046.37,3305.66,350.40,351.22,3.96,0000 0000 0000 0000 000000
2015-03-02 12:26:31,0.22,0.90,0.00,23.05,27.67,30.53,4.86,27.09,1024.92,2029.09,3072.68,3044.55,3303.61,350.17,350.72,3.99,0000 0000 0000 0000 000000
2015-03-02 12:31:33,0.21,0.91,0.00,23.08,27.65,30.57,4.84,26.99,1024.92,2029.08,3070.26,3042.74,3301.62,349.86,350.32,4.02,0000 0000 0000 0000 000000
2015-03-02 12:36:34,0.24,0.91,0.00,23.01,27.65,30.62,4.80,27.10,1024.92,2029.18,3067.79,3040.93,3299.70,349.99,350.50,4.05,0000 0000 0000 0000 000000
2015-03-02 12:41:35,0.21,0.92,0.00,22.52,27.65,30.53,4.85,27.18,1024.88,2029.16,3065.08,3039.05,3297.69,350.59,351.69,4.08,0000 0000 0000 0000 000000
2015-03-02 12:46:36,0.24,0.93,0.00,22.30,27.63,30.36,4.83,27.17,1024.69,2029.49,3062.71,3037.32,3295.82,349.98,351.17,4.11,0000 0000 0000 0000 000000
2015-03-02 12:51:38,0.21,0.93,0.00,22.16,27.62,30.13,4.89,27.23,1024.48,2029.47,3060.12,3035.50,3293.73,349.71,351.08,4.14,0000 0000 0000 0000 000000
2015-03-02 12:56:39,0.22,0.94,0.00,22.14,27.62,29.95,4.88,27.16,1024.47,2029.45,3057.60,3033.65,3291.79,349.92,351.38,4.17,0000 0000 0000 0000 000000
2015-03-02 13:01:40,0.25,0.95,0.00,22.08,27.62,29.77,4.88,27.10,1024.45,2029.54,3055.22,3031.89,3289.90,349.99,351.66,4.20,0000 0000 0000 0000 000000
2015-03-02 13:06:41,0.18,0.95,0.00,22.10,27.62,29.64,4.83,27.21,1024.44,2029.60,3052.69,3030.09,3287.94,349.39,351.04,4.23,0000 0000 0000 0000 000000